This is the latest recevied weather packets stored in our database for station/object E22ZMG-4. If no packets are shown the sender has not sent any weather packets the latest 1 day(s).
| Time | Temp. | Humidity | Pressure | Rain* | Wind** | Luminosity | Snow |
|---|---|---|---|---|---|---|---|
| 1777987644 | 31.67° C | 50% | 974 hPa | - | 0 m/s | 0 W/m² | - |
| 1777987019 | 31.67° C | 50% | 974 hPa | - | 0 m/s | 0 W/m² | - |
| 1777986394 | 31.67° C | 50% | 974 hPa | - | 0 m/s | 0 W/m² | - |
| 1777985770 | 31.11° C | 49% | 974 hPa | - | 0 m/s | 0 W/m² | - |
| 1777985144 | 31.11° C | 48% | 974 hPa | - | 0 m/s | 0 W/m² | - |
| 1777984518 | 31.11° C | 48% | 974 hPa | - | 0 m/s | 0 W/m² | - |
| 1777983894 | 31.11° C | 48% | 974 hPa | - | 0 m/s | 0 W/m² | - |
| 1777983269 | 31.11° C | 48% | 973 hPa | - | 0 m/s | 0 W/m² | - |
| 1777982644 | 31.11° C | 48% | 973 hPa | - | 0 m/s | 0 W/m² | - |
| 1777982019 | 31.11° C | 48% | 973 hPa | - | 0 m/s | 0 W/m² | - |
| 1777981394 | 31.11° C | 48% | 973 hPa | - | 0 m/s | 0 W/m² | - |
| 1777980770 | 31.11° C | 47% | 973 hPa | - | 0 m/s | 0 W/m² | - |
| 1777980145 | 30.56° C | 48% | 973 hPa | - | 0 m/s | 0 W/m² | - |
| 1777979521 | 30.56° C | 48% | 973 hPa | - | 0 m/s | 0 W/m² | - |
| 1777978896 | 30.56° C | 48% | 973 hPa | - | 0 m/s | 0 W/m² | - |
| 1777978272 | 30° C | 49% | 973 hPa | - | 0 m/s | 0 W/m² | - |
| 1777977647 | 29.44° C | 50% | 973 hPa | - | 0 m/s | 0 W/m² | - |
| 1777977023 | 28.33° C | 52% | 973 hPa | - | 0 m/s | 0 W/m² | - |
| 1777976398 | 27.78° C | 55% | 973 hPa | - | 0 m/s | 0 W/m² | - |
| 1777975774 | 27.22° C | 47% | 973 hPa | - | 0 m/s | 0 W/m² | - |
| 1777975149 | 27.22° C | 44% | 973 hPa | - | 0 m/s | 0 W/m² | - |
| 1777974524 | 27.22° C | 49% | 973 hPa | - | 0 m/s | 0 W/m² | - |
| 1777973900 | 26.67° C | 42% | 973 hPa | - | 0 m/s | 0 W/m² | - |
| 1777973276 | 27.22° C | 44% | 973 hPa | - | 0 m/s | 0 W/m² | - |
| 1777972652 | 27.22° C | 46% | 973 hPa | - | 0 m/s | 0 W/m² | - |
* Rain since midnight (hover to see other rain measurements)
** Current wind speed in m/s (hover to see current wind gust speed)